Weather History for KPGA - February, 2012

Change the Weather History Date:

Tuesday, February 21, 2012

  Actual Average Record
Temperature  
Mean Temperature 42 °F -  
Max Temperature 54 °F 51 °F 66 °F (1958)
Min Temperature 30 °F 31 °F 21 °F (1967)
Degree Days  
Heating Degree Days 23    
Moisture  
Dew Point 15 °F    
Average Humidity 35    
Maximum Humidity 51    
Minimum Humidity 19    
Precipitation  
Precipitation 0.00 in - - ()
Sea Level Pressure  
Sea Level Pressure 30.15 in    
Wind  
Wind Speed 3 mph (East)    
Max Wind Speed 6 mph    
Max Gust Speed -    
Visibility 9 miles    
Events      
Averages and records for this station are not official NWS values.
T = Trace of Precipitation, MM = Missing Value Source: NWS Daily Summary

Daily Weather History Graph

Daily Weather History Graph

Search for Another Location

Airport or City:

Trip Planner

Search our weather history database for the weather conditions in past years. The results will help you decide how hot, cold, wet, or windy it might be!

Date:

Astronomy

Feb. 21, 2012 Rise Set
Actual Time 7:07 AM MST 6:11 PM MST
Civil Twilight 6:41 AM MST 6:38 PM MST
Nautical Twilight 6:11 AM MST 7:08 PM MST
Astronomical Twilight 5:41 AM MST 7:38 PM MST
Moon 6:39 AM MST (2/21) 6:20 PM MST (2/21)
Length of Visible Light 11h 56m
Length of Day
11h 04m
Waning Crescent, 0% of the Moon is Illuminated
Feb 21
Waning Crescent
Feb 21
New
Feb 29
First Quarter
Mar 8
Full
Mar 14
Last Quarter

Hourly Weather History & Observations

Time (MST) Temp. Windchill Dew Point Humidity Pressure Visibility Wind Dir Wind Speed Gust Speed Precip Events Conditions
12:53 AM 34.0 °F 29.8 °F 12.9 °F 42% 30.14 in 10.0 mi SW 4.6 mph - N/A   Clear
1:53 AM 34.0 °F 29.8 °F 12.9 °F 42% 30.12 in 10.0 mi SSW 4.6 mph - N/A   Clear
2:53 AM 30.9 °F - 12.9 °F 47% 30.14 in 10.0 mi Calm Calm - N/A   Clear
3:53 AM 30.9 °F - 12.9 °F 47% 30.13 in 6.0 mi Calm Calm - N/A   Haze
4:53 AM 30.2 °F - 14.0 °F 51% 30.16 in 7.0 mi Calm Calm - N/A   Clear
5:53 AM 32.0 °F - 14.0 °F 48% 30.17 in 7.0 mi Calm Calm - N/A   Clear
6:53 AM 32.0 °F 28.7 °F 14.0 °F 48% 30.17 in 10.0 mi SW 3.5 mph - N/A   Clear
7:53 AM 34.0 °F - 14.0 °F 44% 30.21 in 10.0 mi Calm Calm - N/A   Clear
8:53 AM 37.9 °F - 14.0 °F 38% 30.22 in 10.0 mi Calm Calm - N/A   Clear
9:53 AM 41.0 °F - 15.1 °F 35% 30.22 in 10.0 mi Calm Calm - N/A   Clear
10:53 AM 42.1 °F 40.2 °F 16.0 °F 35% 30.21 in 10.0 mi NNE 3.5 mph - N/A   Clear
11:53 AM 45.0 °F 42.6 °F 14.0 °F 29% 30.21 in 10.0 mi ENE 4.6 mph - N/A   Clear
12:53 PM 48.9 °F - 12.0 °F 23% 30.15 in 10.0 mi NE 3.5 mph - N/A   Clear
1:53 PM 51.1 °F - 12.0 °F 21% 30.12 in 10.0 mi East 3.5 mph - N/A   Clear
2:53 PM 53.6 °F - 12.2 °F 19% 30.13 in 10.0 mi NE 5.8 mph - N/A   Clear
3:53 PM 54.0 °F - 12.0 °F 19% 30.08 in 10.0 mi ENE 5.8 mph - N/A   Clear
4:53 PM 54.0 °F - 16.0 °F 22% 30.07 in 10.0 mi NNE 5.8 mph - N/A   Clear
5:53 PM 51.1 °F - 18.0 °F 27% 30.10 in 10.0 mi North 4.6 mph - N/A   Clear
6:53 PM 48.0 °F - 17.1 °F 29% 30.12 in 10.0 mi Calm Calm - N/A   Clear
7:53 PM 46.9 °F - 18.0 °F 32% 30.12 in 6.0 mi SSW 3.5 mph - N/A   Haze
8:53 PM 46.4 °F 45.2 °F 17.6 °F 32% 30.16 in 10.0 mi SSE 3.5 mph - N/A   Clear
9:53 PM 44.1 °F 42.5 °F 18.0 °F 35% 30.14 in 8.0 mi SSE 3.5 mph - N/A   Clear
10:53 PM 44.1 °F - 19.9 °F 38% 30.15 in 10.0 mi Calm Calm - N/A   Clear
11:53 PM 43.0 °F 39.5 °F 21.9 °F 43% 30.14 in 10.0 mi SE 5.8 mph - N/A   Clear